Location: Unspecified
(43.4354°N, 0.0000°E)
Time: 02:41:07
(UTC+00:00)

S-56A Canister/Altair - Pass Details

Date: 25 June 2019
Orbit: 633 x 2499 km, 38.9° (Epoch: 17 August)

Event Time Altitude Azimuth Distance (km) Brightness Sun altitude
Rises 15:57:42 0° 250° (WSW) 5,371 12.7 38.2°
Reaches altitude 10° 16:01:44 10° 248° (WSW) 4,091 12.3 37.5°
Maximum altitude 16:11:41 59° 172° (S) 1,454 9.4 35.7°
Drops below altitude 10° 16:18:11 10° 94° (E) 2,733 9.9 34.5°
Sets 16:20:24 0° 91° (E) 3,501 10.4 34.1°
